Location: Cluj-Napoca
(46.7712°N, 23.6236°E)
Time: 06:55:29
(UTC+03:00)

ISS - Pass Details

Date: 28 March 2020
Orbit: 417 x 423 km, 51.6° (Epoch: 29 March)

Event Time Altitude Azimuth Distance (km) Brightness Sun altitude
Rises 19:18:24 0° 278° (W) 2,358 2.9 -5.7°
Reaches altitude 10° 19:20:37 10° 288° (WNW) 1,496 0.9 -6.1°
Maximum altitude 19:23:44 35° 356° (N) 703 -2.4 -6.6°
Drops below altitude 10° 19:26:51 10° 64° (ENE) 1,498 -1.4 -7.1°
Enters shadow 19:27:43 - 68° (ENE) 1,832 -1.0 -7.3°
